Location: Sternwarte ZA, Rosenfeld-Brittheim
(48.2889°N, 8.6789°E)
Time: 09:55:14
(UTC+02:00)

ISS - Pass Details

Date: 03 August 2020
Orbit: 418 x 420 km, 51.6° (Epoch: 11 August)

Event Time Altitude Azimuth Distance (km) Brightness Sun altitude
Rises 21:58:55 0° 282° (WNW) 2,370 1.3 -9.2°
Reaches altitude 10° 22:02:04 10° 250° (WSW) 1,501 -0.5 -9.6°
Maximum altitude 22:03:26 12° 226° (SW) 1,379 -1.1 -9.8°
Drops below altitude 10° 22:04:49 10° 201° (SSW) 1,497 -1.1 -10.0°
Enters shadow 22:06:26 - 181° (S) 1,874 -0.8 -10.2°
